Alma, MI

4:59 PM EDT on September 27, 2016 (GMT -0400)
Gratiot Community

Weather History for KAMN - August, 2013

Change the Weather History Date:

Sunday, August 18, 2013

  Actual Average Record
Temperature  
Mean Temperature 65 °F -  
Max Temperature 82 °F 80 °F 98 °F (1988)
Min Temperature 48 °F 56 °F 41 °F (2007)
Growing Degree Days 15 (Base 50)    
Moisture  
Dew Point 50 °F    
Average Humidity 65    
Maximum Humidity 97    
Minimum Humidity 27    
Precipitation  
Precipitation 0.00 in - - ()
Sea Level Pressure  
Sea Level Pressure 30.19 in    
Wind  
Wind Speed 1 mph (SSE)    
Max Wind Speed 7 mph    
Max Gust Speed -    
Visibility 9 miles    
Events      
Averages and records for this station are not official NWS values.
T = Trace of Precipitation, MM = Missing Value Source: NWS Daily Summary

Daily Weather History Graph

Daily Weather History Graph

Search for Another Location

Airport or City:

Trip Planner

Search our weather history database for the weather conditions in past years. The results will help you decide how hot, cold, wet, or windy it might be!

Date:

Astronomy

Aug. 18, 2013 Rise Set
Actual Time 6:47 AM EDT 8:36 PM EDT
Civil Twilight 6:17 AM EDT 9:07 PM EDT
Nautical Twilight 5:39 AM EDT 9:44 PM EDT
Astronomical Twilight 4:59 AM EDT 10:24 PM EDT
Moon 6:43 PM EDT (8/18) 3:53 AM EDT (8/18)
Length of Visible Light 14h 50m
Length of Day
13h 49m
Waxing Gibbous, 92% of the Moon is Illuminated
Aug 18
Waxing Gibbous
Aug 20
Full
Aug 28
Last Quarter
Sep 5
New
Sep 12
First Quarter

Hourly Weather History & Observations

Time (EDT) Temp. Dew Point Humidity Pressure Visibility Wind Dir Wind Speed Gust Speed Precip Events Conditions
12:13 AM 56.1 °F 52.9 °F 89% 30.21 in 10.0 mi Calm Calm - N/A   Clear
12:33 AM 54.9 °F 51.6 °F 89% 30.21 in 10.0 mi Calm Calm - N/A   Clear
12:53 AM 54.3 °F 52.0 °F 92% 30.21 in 10.0 mi Calm Calm - N/A   Clear
1:13 AM 53.6 °F 51.4 °F 92% 30.21 in 10.0 mi Calm Calm - N/A   Clear
1:30 AM 54.0 °F 51.8 °F 92% 30.21 in 10.0 mi Calm Calm - N/A   Clear
1:50 AM 53.4 °F 50.7 °F 91% 30.20 in 10.0 mi Calm Calm - N/A   Clear
2:10 AM 53.6 °F 51.4 °F 92% 30.21 in 10.0 mi Calm Calm - N/A   Clear
2:30 AM 52.5 °F 50.5 °F 93% 30.21 in 10.0 mi Calm Calm - N/A   Clear
2:51 AM 52.5 °F 51.1 °F 95% 30.22 in 10.0 mi Calm Calm - N/A   Clear
3:11 AM 51.3 °F 49.5 °F 94% 30.22 in 10.0 mi Calm Calm - N/A   Clear
3:31 AM 52.7 °F 51.4 °F 95% 30.22 in 10.0 mi Calm Calm - N/A   Clear
3:51 AM 51.4 °F 50.0 °F 95% 30.21 in 10.0 mi Calm Calm - N/A   Clear
4:11 AM 51.1 °F 49.6 °F 95% 30.22 in 10.0 mi Calm Calm - N/A   Clear
4:31 AM 50.9 °F 49.5 °F 95% 30.22 in 10.0 mi Calm Calm - N/A   Clear
4:46 AM 49.6 °F 48.4 °F 95% 30.22 in 7.0 mi Calm Calm - N/A   Clear
5:09 AM 49.5 °F 48.2 °F 95% 30.22 in 10.0 mi Calm Calm - N/A   Clear
5:29 AM 49.8 °F 48.6 °F 95% 30.22 in 4.0 mi Calm Calm - N/A   Clear
5:49 AM 50.2 °F 49.3 °F 97% 30.22 in 3.0 mi Calm Calm - N/A   Clear
6:09 AM 49.1 °F 48.2 °F 97% 30.22 in 5.0 mi Calm Calm - N/A   Clear
6:29 AM 49.1 °F 48.2 °F 97% 30.23 in 5.0 mi Calm Calm - N/A   Clear
6:49 AM 48.2 °F 47.1 °F 96% 30.23 in 7.0 mi Calm Calm - N/A   Clear
7:09 AM 48.7 °F 47.7 °F 96% 30.24 in 4.0 mi Calm Calm - N/A   Clear
7:29 AM 50.4 °F 49.3 °F 96% 30.25 in 4.0 mi Calm Calm - N/A   Clear
7:49 AM 52.9 °F 51.8 °F 96% 30.25 in 5.0 mi Calm Calm - N/A   Clear
8:09 AM 55.4 °F 54.0 °F 95% 30.25 in 10.0 mi Calm Calm - N/A   Clear
8:29 AM 58.3 °F 56.1 °F 93% 30.25 in 10.0 mi Calm Calm - N/A   Clear
8:52 AM 62.8 °F 56.5 °F 80% 30.25 in 10.0 mi Calm Calm - N/A   Clear
9:12 AM 65.7 °F 57.2 °F 74% 30.25 in 10.0 mi Calm Calm - N/A   Clear
9:32 AM 68.0 °F 56.7 °F 67% 30.25 in 10.0 mi Calm Calm - N/A   Clear
9:52 AM 71.1 °F 56.1 °F 59% 30.25 in 10.0 mi Calm Calm - N/A   Clear
10:12 AM 72.9 °F 57.2 °F 58% 30.24 in 10.0 mi Calm Calm - N/A   Clear
10:32 AM 74.5 °F 51.8 °F 45% 30.25 in 10.0 mi Calm Calm - N/A   Clear
10:53 AM 75.6 °F 52.2 °F 44% 30.24 in 10.0 mi Calm Calm - N/A   Clear
11:13 AM 76.8 °F 53.1 °F 44% 30.24 in 10.0 mi Calm Calm - N/A   Clear
11:33 AM 77.0 °F 51.8 °F 41% 30.24 in 10.0 mi South 3.5 mph - N/A   Clear
11:53 AM 77.4 °F 52.5 °F 42% 30.23 in 10.0 mi ESE 5.8 mph - N/A   Scattered Clouds
12:08 PM 77.4 °F 51.8 °F 41% 30.22 in 10.0 mi Calm Calm - N/A   Mostly Cloudy
12:30 PM 79.7 °F 50.9 °F 37% 30.22 in 10.0 mi ESE 6.9 mph - N/A   Mostly Cloudy
12:50 PM 78.6 °F 44.6 °F 30% 30.22 in 10.0 mi East 4.6 mph - N/A   Scattered Clouds
1:11 PM 79.2 °F 44.2 °F 29% 30.21 in 10.0 mi East 5.8 mph - N/A   Clear
1:31 PM 79.7 °F 44.8 °F 29% 30.21 in 10.0 mi Calm Calm - N/A   Clear
1:51 PM 80.6 °F 43.9 °F 27% 30.20 in 10.0 mi ESE 4.6 mph - N/A   Clear
2:11 PM 79.9 °F 44.2 °F 28% 30.19 in 10.0 mi ENE 3.5 mph - N/A   Clear
2:31 PM 81.3 °F 45.7 °F 28% 30.19 in 10.0 mi SE 4.6 mph - N/A   Clear
2:51 PM 80.8 °F 44.6 °F 28% 30.19 in 10.0 mi SSE 5.8 mph - N/A   Clear
3:11 PM 81.0 °F 44.1 °F 27% 30.18 in 10.0 mi Calm Calm - N/A   Clear
3:31 PM 81.0 °F 44.1 °F 27% 30.17 in 10.0 mi Calm Calm - N/A   Clear
3:52 PM 80.6 °F 45.0 °F 28% 30.16 in 10.0 mi NW 3.5 mph - N/A   Clear
4:09 PM 82.0 °F 46.9 °F 29% 30.16 in 10.0 mi SSW 5.8 mph - N/A   Clear
4:29 PM 81.3 °F 46.4 °F 29% 30.15 in 10.0 mi East 3.5 mph - N/A   Clear
4:49 PM 81.7 °F 46.8 °F 29% 30.15 in 10.0 mi SSE 4.6 mph - N/A   Clear
5:09 PM 82.0 °F 46.8 °F 29% 30.14 in 10.0 mi SSW 5.8 mph - N/A   Clear
5:29 PM 81.5 °F 46.6 °F 29% 30.14 in 10.0 mi South 3.5 mph - N/A   Clear
5:49 PM 81.7 °F 46.4 °F 29% 30.14 in 10.0 mi SSW 4.6 mph - N/A   Clear
6:12 PM 81.5 °F 46.0 °F 29% 30.14 in 10.0 mi WSW 3.5 mph - N/A   Clear
6:32 PM 81.1 °F 46.8 °F 30% 30.14 in 10.0 mi WSW 4.6 mph - N/A   Clear
6:52 PM 80.6 °F 45.3 °F 29% 30.13 in 10.0 mi Calm Calm - N/A   Clear
7:12 PM 79.9 °F 46.6 °F 31% 30.13 in 10.0 mi Calm Calm - N/A   Clear
7:32 PM 78.3 °F 51.3 °F 39% 30.13 in 10.0 mi SSW 3.5 mph - N/A   Clear
7:52 PM 75.4 °F 54.5 °F 48% 30.12 in 10.0 mi South 3.5 mph - N/A   Clear
8:12 PM 71.6 °F 54.9 °F 55% 30.12 in 10.0 mi South 3.5 mph - N/A   Clear
8:33 PM 69.6 °F 54.0 °F 57% 30.13 in 10.0 mi South 4.6 mph - N/A   Clear
8:53 PM 65.5 °F 54.5 °F 68% 30.13 in 10.0 mi Calm Calm - N/A   Clear
9:13 PM 65.8 °F 54.5 °F 67% 30.13 in 10.0 mi South 4.6 mph - N/A   Clear
9:28 PM 63.9 °F 54.7 °F 72% 30.13 in 10.0 mi South 3.5 mph - N/A   Clear
9:50 PM 62.6 °F 55.9 °F 79% 30.13 in 10.0 mi Calm Calm - N/A   Clear
10:10 PM 64.4 °F 56.7 °F 76% 30.14 in 10.0 mi Calm Calm - N/A   Clear
10:30 PM 59.2 °F 54.9 °F 86% 30.14 in 10.0 mi Calm Calm - N/A   Clear
10:51 PM 59.7 °F 55.8 °F 87% 30.13 in 10.0 mi Calm Calm - N/A   Clear
11:11 PM 57.2 °F 53.4 °F 87% 30.13 in 10.0 mi Calm Calm - N/A   Clear
11:31 PM 56.8 °F 53.4 °F 88% 30.13 in 10.0 mi Calm Calm - N/A   Clear
11:51 PM 57.0 °F 54.5 °F 91% 30.13 in 10.0 mi Calm Calm - N/A   Clear